Dewpoint
4 5 5 5 5 8 9 10 11 11 12 11 12 12 12 11 11 12 12 11 11 10 9 8 7 7 7 7 7 6 3 2
-6 -5 -4 -6 -7 -8 -8 -9 -9 -10 -8 -6 2 9 11 12 11 11 11 12 12 12 11 11 10 8 8 7 7 8 6 3
-8 -9 -9 -10 -9 -10 -10 -10 -9 -10 -10 -10 -10 -10 -7 -2 6 9 11 11 12 12 12 12 12 11 10 9 8 7 7 5
-9 -9 -10 -10 -10 -10 -10 -9 -9 -10 -9 -9 -9 -9 -10 -10 -9 -9 -9 -0 10 12 12 12 12 12 12 12 11 10 8 8
-8 -9 -9 -10 -9 -9 -8 -8 -9 -9 -10 -10 -11 -12 -12 -12 -12 -11 -10 -9 -8 -3 9 11 12 13 13 13 13 11 11 12
-8 -8 -8 -8 -8 -8 -9 -9 -10 -10 -11 -10 -11 -11 -11 -11 -11 -11 -11 -10 -10 -8 -6 -5 -1 7 12 13 13 13 12 11
-6 -7 -7 -8 -8 -9 -9 -9 -9 -9 -11 -10 -11 -10 -10 -10 -10 -10 -10 -9 -7 -7 -7 -6 -6 -4 -2 2 12 13 13 12
-5 -6 -7 -7 -8 -9 -8 -9 -8 -8 -9 -8 -9 -9 -9 -9 -9 -9 -8 -9 -8 -8 -8 -8 -8 -7 -5 -2 -1 8 13 13
-5 -6 -7 -7 -7 -7 -8 -7 -6 -7 -7 -7 -8 -9 -8 -8 -8 -8 -8 -8 -8 -7 -8 -8 -8 -8 -7 -5 -2 -2 5 11
-5 -6 -7 -7 -7 -6 -6 -4 -3 -4 -6 -7 -8 -9 -8 -8 -8 -8 -7 -7 -7 -7 -7 -7 -7 -7 -7 -7 -7 -7 -5 -3
-4 -5 -7 -7 -6 -6 -4 -2 -0 -2 -5 -7 -7 -8 -8 -8 -7 -7 -7 -7 -7 -6 -6 -6 -7 -7 -7 -7 -7 -7 -8 -9
-3 -5 -7 -8 -6 -7 -5 -2 0 0 -2 -4 -6 -7 -7 -8 -6 -7 -6 -6 -6 -6 -6 -6 -6 -5 -7 -8 -9 -7 -6 -6
-3 -4 -6 -8 -8 -8 -7 -4 -0 0 -1 -3 -5 -5 -7 -8 -6 -6 -6 -6 -5 -5 -5 -5 -5 -5 -5 -7 -9 -6 -3 -2
-2 -3 -5 -7 -8 -7 -5 -1 -0 -0 -1 -2 -3 -3 -4 -5 -6 -7 -6 -6 -5 -5 -4 -5 -4 -3 -2 -2 -1 -3 2 -6
-2 -2 -4 -6 -8 -7 -5 -2 -2 -2 -4 -4 -2 -2 -4 -5 -6 -7 -6 -6 -6 -5 -5 -4 -4 -3 -3 -2 -1 -0 -2 -2
-2 -3 -4 -6 -7 -8 -7 -7 -6 -4 -4 -4 -4 -4 -4 -5 -6 -7 -7 -6 -6 -5 -5 -4 -3 -3 -3 -3 -3 -2 -2 -1
-3 -3 -4 -6 -7 -7 -6 -6 -5 -5 -5 -6 -6 -5 -5 -6 -7 -7 -6 -4 -5 -4 -4 -3 -4 -4 -4 -4 -3 -3 -2 -2
-3 -3 -4 -6 -4 -3 -4 -4 -4 -5 -6 -7 -6 -7 -6 -6 -7 -7 -6 -6 -5 -4 -4 -5 -4 -5 -5 -5 -5 -4 -4 -4
-4 -3 -3 -5 -3 -3 -4 -4 -4 -5 -6 -7 -7 -8 -7 -7 -8 -8 -7 -7 -6 -5 -5 -5 -5 -5 -5 -6 -6 -5 -5 -4
-3 -3 -4 -5 -4 -3 -4 -4 -5 -5 -5 -7 -7 -8 -7 -8 -9 -9 -8 -8 -6 -5 -6 -6 -6 -6 -6 -6 -6 -6 -6 -6
Wind_Speed
6 5 4 3 5 6 5 5 4 4 4 5 6 7 9 10 11 13 16 16 18 16 15 16 17 16 16 15 15 13 13 10
6 5 4 4 5 3 3 4 4 4 5 5 5 6 9 10 11 11 13 15 17 18 19 19 19 19 19 18 18 18 17 14
4 4 3 1 2 0 2 4 6 6 5 5 6 7 7 8 9 11 14 15 15 15 17 18 22 23 22 22 21 22 21 19
2 3 3 1 1 3 6 7 8 10 9 10 9 11 12 12 12 13 13 13 15 16 16 16 19 23 25 26 25 23 23 20
2 2 2 1 2 4 5 7 8 10 11 12 13 13 13 13 14 12 12 16 17 17 19 20 20 20 21 24 25 24 23 19
1 1 0 2 3 4 6 6 8 10 12 12 12 13 14 14 14 15 16 15 16 18 20 21 21 22 22 24 26 25 27 26
1 2 2 2 3 3 5 6 7 9 11 12 14 14 13 13 14 14 15 17 19 19 21 22 24 25 25 26 26 27 25 29
1 1 2 3 3 4 5 6 7 8 10 12 12 14 15 15 14 14 15 17 18 19 21 22 23 24 24 25 26 29 30 28
3 2 2 3 4 4 6 6 7 8 10 10 12 13 14 15 14 15 15 15 16 17 18 19 20 21 24 26 28 29 33 33
2 2 2 3 4 5 6 7 8 9 10 11 12 13 14 14 15 17 18 17 17 18 20 20 21 22 22 22 26 29 32 36
3 3 2 3 3 2 3 5 8 10 11 11 13 14 16 16 16 16 17 19 20 22 22 23 25 26 26 26 25 26 28 32
4 2 0 1 2 3 2 1 5 9 13 14 14 15 15 16 16 18 19 20 20 22 25 26 28 30 32 31 28 21 19 21
4 5 2 2 3 3 3 4 4 7 11 13 14 15 15 15 16 18 19 22 23 24 25 28 29 33 36 38 33 26 11 14
3 7 6 4 2 3 3 6 1 6 10 10 12 15 16 19 20 20 19 20 22 24 26 28 29 30 30 28 23 24 8 32
1 5 7 4 4 3 1 3 5 7 7 8 11 12 16 19 19 19 19 20 21 23 24 25 27 26 24 16 14 13 48 18
3 5 6 7 5 4 4 4 5 6 9 9 9 10 14 17 19 18 17 18 19 20 20 21 21 24 22 16 14 18 14 30
1 5 5 6 6 5 6 6 7 6 8 8 8 10 13 17 19 18 18 19 19 20 19 18 19 19 19 23 22 20 18 23
1 4 5 4 6 7 7 6 7 8 9 9 10 12 14 18 18 19 18 19 20 19 17 17 16 17 18 19 18 19 26 27
3 2 5 2 4 4 6 5 6 9 11 11 12 14 15 19 21 20 20 20 19 19 17 15 17 16 18 18 20 19 17 23
7 6 7 0 3 1 5 5 6 8 11 12 13 14 15 17 19 19 20 21 19 18 16 17 17 16 17 19 19 19 20 22
Wind_Direction
99 95 91 87 51 45 37 30 17 2 350 326 309 296 281 285 285 286 287 287 284 276 277 279 283 283 282 283 282 277 271 261
89 91 100 88 71 71 48 27 4 359 353 339 324 292 286 281 279 277 275 279 285 287 285 282 281 282 282 279 279 277 273 270
109 120 143 96 123 94 324 332 323 322 331 325 319 303 292 290 283 280 277 274 275 278 277 280 280 278 277 278 278 277 276 274
135 153 171 183 225 313 321 327 322 316 321 323 321 309 306 300 292 286 279 274 269 271 270 271 272 274 276 277 276 279 277 278
157 160 174 250 317 322 328 335 333 322 325 326 330 324 320 314 312 308 295 281 274 268 266 265 264 265 267 270 276 275 270 271
166 135 86 7 354 331 341 336 331 323 326 332 327 327 326 326 320 318 310 300 292 287 281 273 272 271 271 268 264 265 270 269
258 43 24 14 357 340 350 337 335 332 327 341 337 345 347 344 336 327 320 317 312 305 297 291 284 278 275 269 263 261 264 261
300 39 22 26 9 349 357 350 352 339 342 358 350 353 352 353 348 343 337 331 325 318 311 307 301 293 283 275 266 254 250 257
271 343 13 36 30 16 15 8 3 348 349 356 350 352 356 353 353 355 353 347 337 332 323 317 309 302 294 284 275 265 254 253
267 334 7 34 29 26 21 15 1 349 344 346 345 345 350 351 352 353 355 354 351 347 343 339 332 324 314 302 291 279 269 257
301 348 31 38 51 23 20 22 357 338 329 337 339 340 343 347 353 354 354 354 354 353 354 350 343 338 331 323 313 298 284 273
294 315 8 274 306 307 318 66 16 331 327 332 338 340 341 341 350 351 353 356 357 356 353 353 351 343 335 332 333 324 312 287
346 319 329 318 296 318 359 39 24 316 321 329 335 338 338 342 351 352 353 357 359 358 355 353 353 349 345 341 342 347 299 289
334 319 329 8 286 10 70 88 276 297 313 335 337 345 343 343 351 350 353 354 355 357 357 355 356 359 353 355 341 344 307 323
324 317 320 354 333 6 169 206 252 285 335 342 356 345 338 341 349 350 353 352 353 355 356 356 353 357 7 16 343 322 327 328
235 288 317 345 6 1 11 359 1 347 352 341 351 342 336 337 343 347 353 353 351 352 354 356 356 354 358 339 327 309 316 316
226 298 330 358 8 10 16 12 17 344 346 351 349 347 345 339 347 356 360 357 354 352 353 360 1 355 342 334 335 324 320 305
200 283 317 18 49 8 8 9 5 343 354 357 354 348 350 342 350 354 354 352 353 355 359 1 0 344 346 341 339 330 310 309
76 243 291 21 88 1 351 359 353 350 350 350 346 347 350 340 345 351 352 352 354 357 3 7 348 359 352 344 330 328 316 302
200 228 259 183 136 357 325 343 1 352 341 343 343 344 344 339 344 350 352 353 358 4 9 3 359 3 353 345 345 336 324 320
Height
1534 1535 1535 1535 1535 1534 1534 1534 1534 1534 1533 1533 1532 1532 1531 1530 1530 1529 1529 1528 1528 1528 1527 1526 1526 1525 1526 1526 1526 1527 1527 1529
1535 1535 1535 1534 1534 1534 1534 1533 1533 1533 1532 1532 1530 1529 1529 1527 1527 1526 1525 1525 1524 1526 1524 1524 1523 1522 1523 1523 1523 1522 1522 1524
1534 1535 1534 1534 1533 1533 1533 1532 1532 1532 1531 1531 1529 1528 1526 1525 1524 1523 1522 1521 1520 1520 1520 1519 1518 1518 1518 1519 1519 1518 1518 1519
1533 1534 1533 1533 1532 1532 1532 1532 1530 1529 1529 1528 1527 1525 1524 1523 1522 1521 1519 1517 1515 1515 1514 1513 1513 1513 1514 1514 1514 1514 1515 1516
1532 1533 1533 1532 1532 1531 1530 1530 1528 1526 1527 1525 1524 1523 1521 1519 1518 1517 1515 1514 1512 1511 1510 1508 1508 1508 1509 1509 1509 1510 1510 1511
1532 1532 1532 1531 1530 1529 1528 1527 1525 1524 1524 1522 1522 1521 1518 1516 1514 1512 1511 1509 1508 1507 1506 1505 1504 1504 1503 1503 1503 1504 1505 1505
1531 1531 1530 1529 1528 1527 1526 1525 1523 1522 1522 1520 1519 1518 1516 1514 1512 1510 1508 1506 1504 1502 1500 1499 1499 1498 1498 1496 1497 1498 1499 1497
1529 1529 1529 1528 1527 1525 1524 1523 1522 1520 1521 1518 1517 1516 1514 1512 1510 1508 1505 1503 1500 1498 1495 1494 1493 1492 1491 1490 1490 1490 1490 1491
1528 1529 1528 1528 1526 1525 1524 1523 1522 1520 1520 1517 1516 1515 1513 1511 1508 1506 1504 1501 1498 1495 1492 1489 1488 1486 1485 1484 1482 1482 1482 1482
1526 1528 1527 1526 1525 1525 1523 1523 1522 1520 1519 1517 1516 1514 1512 1510 1507 1505 1502 1499 1496 1493 1488 1484 1482 1479 1477 1475 1474 1474 1474 1474
1525 1526 1526 1525 1524 1523 1523 1522 1522 1519 1517 1516 1515 1513 1511 1509 1507 1504 1501 1498 1493 1489 1486 1482 1477 1473 1471 1469 1467 1465 1465 1465
1524 1523 1523 1522 1522 1522 1522 1523 1522 1519 1516 1515 1514 1512 1510 1507 1506 1503 1500 1496 1492 1489 1485 1481 1475 1470 1466 1462 1460 1458 1456 1455
1525 1522 1520 1519 1519 1520 1521 1522 1522 1519 1517 1515 1513 1511 1508 1506 1505 1501 1498 1494 1490 1487 1483 1478 1473 1467 1460 1454 1450 1451 1448 1449
1524 1522 1520 1518 1516 1519 1519 1520 1521 1519 1517 1515 1512 1509 1507 1505 1503 1500 1497 1493 1490 1486 1482 1478 1474 1471 1466 1458 1449 1446 1444 1446
1522 1520 1519 1519 1519 1518 1519 1519 1520 1519 1518 1514 1512 1508 1505 1504 1502 1499 1496 1492 1489 1486 1482 1479 1476 1474 1472 1471 1465 1458 1442 1434
1520 1519 1520 1520 1519 1517 1517 1517 1517 1516 1516 1514 1512 1509 1505 1503 1500 1497 1494 1491 1489 1486 1482 1480 1479 1474 1473 1473 1473 1470 1461 1438
1521 1518 1517 1518 1520 1518 1516 1517 1518 1516 1514 1513 1511 1508 1506 1501 1499 1495 1492 1490 1487 1485 1482 1480 1477 1475 1474 1470 1466 1463 1462 1457
1519 1518 1517 1517 1517 1519 1517 1516 1516 1514 1512 1510 1509 1507 1504 1500 1498 1495 1491 1489 1486 1483 1483 1479 1476 1474 1471 1469 1465 1462 1457 1453
1521 1518 1517 1517 1515 1518 1517 1516 1514 1513 1510 1508 1507 1505 1502 1498 1496 1493 1490 1487 1484 1482 1480 1478 1475 1471 1468 1467 1463 1460 1456 1451
1520 1518 1517 1517 1516 1516 1516 1514 1512 1511 1509 1507 1506 1503 1500 1497 1495 1492 1489 1486 1483 1480 1478 1477 1473 1470 1466 1463 1460 1457 1451 1447